EW0600 Weather Reports


Display with metric or nautical units.
time (UTC)temp
F
wind
direction
speed
MPH
gust
MPH
rain 1hr
in
rain 24hr
in
rain mn
in
humidity
%
barometer
mb
20260505180932 47 288 14.0 21.0 0.00 0.00 0.00 48 1008.5
20260505180002 46 290 13.0 21.0 0.00 0.00 0.00 47 1008.6
20260505175857 47 317 12.0 20.0 0.00 0.00 0.00 47 1008.5
20260505174603 46 308 14.0 19.0 0.00 0.00 0.00 45 1008.6
20260505173707 47 305 13.0 22.0 0.00 0.00 0.00 46 1008.5
20260505173007 46 302 14.0 23.0 0.00 0.00 0.00 45 1008.6
20260505172726 47 287 14.0 22.0 0.00 0.00 0.00 47 1008.5
20260505171734 47 304 11.0 20.0 0.00 0.00 0.00 44 1008.5
20260505171602 46 295 10.0 18.0 0.00 0.00 0.00 47 1008.6
20260505170726 46 273 11.0 20.0 0.00 0.00 0.00 49 1008.6
20260505170002 46 286 9.0 16.0 0.00 0.00 0.00 48 1008.6
20260505165748 46 286 9.0 17.0 0.00 0.00 0.00 48 1008.6
20260505164719 46 307 10.0 18.0 0.00 0.00 0.00 48 1008.6
20260505164606 46 336 9.0 19.0 0.00 0.00 0.00 51 1008.7
20260505163710 45 303 12.0 19.0 0.00 0.00 0.00 48 1008.5
20260505163010 45 295 11.0 20.0 0.00 0.00 0.00 47 1008.6
20260505162649 45 321 11.0 19.0 0.00 0.00 0.00 46 1008.6
20260505161711 46 328 9.0 19.0 0.00 0.00 0.00 50 1008.6
20260505161604 45 323 6.0 20.0 0.00 0.00 0.00 52 1008.7
20260505160732 45 299 11.0 20.0 0.00 0.00 0.00 47 1008.6
20260505153008 44 28 10.0 21.0 0.00 0.00 0.00 52 1008.6
20260505152612 44 340 11.0 19.0 0.00 0.00 0.00 50 1008.4
20260505151627 44 289 12.0 19.0 0.00 0.00 0.00 50 1008.5
20260505151606 43 289 12.0 20.0 0.00 0.00 0.00 48 1008.6
20260505150603 44 285 7.0 17.0 0.00 0.00 0.00 53 1008.4
20260505140306 42 281 7.0 12.0 0.00 0.00 0.00 54 1008.0
20260505130239 40 324 6.0 9.0 0.00 0.00 0.00 63 1007.6
20260505124603 39 302 5.0 8.0 0.00 0.00 0.00 67 1007.4
20260505124155 39 304 4.0 8.0 0.00 0.00 0.00 69 1007.4
20260505123140 39 298 3.0 6.0 0.00 0.00 0.00 69 1007.2
20260505123002 38 302 3.0 7.0 0.00 0.00 0.00 71 1007.3
20260505122105 38 315 1.0 4.0 0.00 0.00 0.00 71 1007.1
20260505121602 37 307 1.0 4.0 0.00 0.00 0.00 75 1007.0
20260505121035 37 328 2.0 4.0 0.00 0.00 0.00 74 1006.8
20260505120046 37 326 2.0 4.0 0.00 0.00 0.00 75 1006.7
20260505120002 36 326 2.0 5.0 0.00 0.00 0.00 75 1006.6
20260505114602 36 318 2.0 4.0 0.00 0.00 0.00 76 1006.5
20260505113835 37 318 1.0 3.0 0.00 0.00 0.00 75 1006.3
20260505112758 36 330 1.0 4.0 0.00 0.00 0.00 76 1006.0
20260505111603 35 330 3.0 5.0 0.00 0.00 0.00 76 1005.9
20260505110621 35 319 3.0 4.0 0.00 0.00 0.00 77 1005.7
20260505101633 36 317 4.0 5.0 0.00 0.00 0.00 74 1005.4
20260505101605 36 317 4.0 6.0 0.00 0.00 0.00 74 1005.5
20260505100653 36 314 4.0 7.0 0.00 0.00 0.00 74 1005.4
20260505100002 36 311 5.0 8.0 0.00 0.00 0.00 73 1005.3
20260505095710 37 314 5.0 7.0 0.00 0.00 0.00 73 1005.3
20260505094707 37 316 5.0 7.0 0.00 0.00 0.00 72 1005.3
20260505094607 36 317 6.0 9.0 0.00 0.00 0.00 72 1005.4
20260505093112 37 325 7.0 9.0 0.00 0.00 0.00 71 1005.1
20260505092506 37 319 6.0 9.0 0.00 0.00 0.00 71 1005.0
20260505091506 37 303 7.0 10.0 0.00 0.00 0.00 71 1005.0
20260505090336 37 304 5.0 7.0 0.00 0.00 0.00 70 1004.8
20260505085306 37 295 4.0 6.0 0.00 0.00 0.00 72 1004.8
20260505084503 37 309 5.0 8.0 0.00 0.00 0.00 71 1004.6
20260505084311 38 313 5.0 9.0 0.00 0.00 0.00 70 1004.5
20260505083241 39 305 6.0 9.0 0.00 0.00 0.00 69 1004.5
20260505083102 38 304 7.0 10.0 0.00 0.00 0.00 69 1004.6
20260505082252 38 302 7.0 9.0 0.00 0.00 0.00 70 1004.4
20260505081504 38 319 8.0 10.0 0.00 0.00 0.00 70 1004.4
20260505081239 38 307 6.0 9.0 0.00 0.00 0.00 70 1004.3
20260505080251 38 300 5.0 8.0 0.00 0.00 0.00 70 1004.2
20260505075238 38 291 6.0 8.0 0.00 0.00 0.00 69 1004.2
20260505074502 37 289 6.0 9.0 0.00 0.00 0.00 69 1004.0
20260505074224 38 285 6.0 8.0 0.00 0.00 0.00 69 1003.9
20260505073004 38 291 6.0 8.0 0.00 0.00 0.00 69 1004.1
20260505072211 38 285 5.0 6.0 0.00 0.00 0.00 69 1004.0
20260505071602 38 288 5.0 7.0 0.00 0.00 0.00 69 1004.1
20260505071137 39 286 5.0 6.0 0.00 0.00 0.00 69 1004.1
20260505070147 39 285 5.0 8.0 0.00 0.00 0.00 68 1004.1
20260505070002 38 288 5.0 9.0 0.00 0.00 0.00 68 1004.1
20260505065141 39 285 5.0 8.0 0.00 0.00 0.00 67 1004.2
20260505064604 39 288 5.0 8.0 0.00 0.00 0.00 67 1004.2
20260505063055 40 291 5.0 6.0 0.00 0.00 0.00 65 1003.9
20260505063002 40 291 5.0 7.0 0.00 0.00 0.00 65 1004.0
20260505061627 40 288 6.0 7.0 0.00 0.00 0.00 64 1004.1
20260505060934 41 284 5.0 7.0 0.00 0.00 0.00 64 1004.1
20260505060002 41 282 6.0 7.0 0.00 0.00 0.00 63 1004.2
20260505055950 41 282 6.0 6.0 0.00 0.00 0.00 63 1004.1
20260505055001 41 278 5.0 7.0 0.00 0.00 0.00 62 1004.0
20260505054626 41 277 6.0 8.0 0.00 0.00 0.00 62 1004.0
20260505053943 41 281 5.0 8.0 0.00 0.00 0.00 62 1003.9
20260505053003 41 283 7.0 9.0 0.00 0.00 0.00 62 1004.0
20260505051956 42 281 6.0 7.0 0.00 0.00 0.00 62 1003.8
20260505051602 41 275 7.0 8.0 0.00 0.00 0.00 62 1003.8
20260505050938 42 278 6.0 9.0 0.00 0.00 0.00 62 1003.7
20260505041602 42 274 5.0 7.0 0.00 0.00 0.00 59 1003.6
20260505040901 43 273 4.0 6.0 0.00 0.00 0.00 58 1003.4
20260505040003 42 272 4.0 6.0 0.00 0.00 0.00 58 1003.5
20260505035843 43 272 4.0 5.0 0.00 0.00 0.00 58 1003.4
20260505034901 43 276 4.0 5.0 0.00 0.00 0.00 58 1003.4
20260505034604 42 274 4.0 6.0 0.00 0.00 0.00 58 1003.5
20260505033910 43 264 3.0 4.0 0.00 0.00 0.00 58 1003.3
20260505033003 43 264 3.0 5.0 0.00 0.00 0.00 56 1003.4
20260505032845 43 264 3.0 4.0 0.00 0.00 0.00 56 1003.3
20260505031815 44 266 3.0 5.0 0.00 0.00 0.00 56 1003.3
20260505031619 43 264 4.0 5.0 0.00 0.00 0.00 56 1003.4
20260505030758 44 275 4.0 6.0 0.00 0.00 0.00 55 1003.3
20260505030002 44 274 5.0 7.0 0.00 0.00 0.00 54 1003.3
20260505025800 44 274 4.0 6.0 0.00 0.00 0.00 54 1003.2
20260505024802 44 272 2.0 5.0 0.00 0.00 0.00 55 1003.0
20260505024611 44 269 3.0 6.0 0.00 0.00 0.00 55 1003.2
20260505023003 45 281 5.0 7.0 0.00 0.00 0.00 52 1003.0
20260505022724 46 281 5.0 7.0 0.00 0.00 0.00 52 1002.9
20260505021711 45 289 5.0 11.0 0.00 0.00 0.00 52 1002.8
20260505021613 45 288 6.0 11.0 0.00 0.00 0.00 52 1002.9
20260505020714 46 300 8.0 15.0 0.00 0.00 0.00 51 1002.7
20260505020002 46 278 10.0 16.0 0.00 0.00 0.00 50 1002.7
20260505015724 46 295 9.0 16.0 0.00 0.00 0.00 51 1002.6
20260505014739 47 309 10.0 19.0 0.00 0.00 0.00 51 1002.5
20260505014603 46 290 8.0 19.0 0.00 0.00 0.00 51 1002.5
20260505013757 47 309 14.0 25.0 0.00 0.00 0.00 49 1002.4
20260505013003 47 315 16.0 26.0 0.00 0.00 0.00 49 1002.3
20260505012725 48 321 19.0 29.0 0.00 0.00 0.00 50 1002.2
20260505011716 48 306 22.0 29.0 0.00 0.00 0.00 49 1001.9
20260505011602 48 347 24.0 30.0 0.00 0.00 0.00 49 1002.0
20260505010640 49 320 18.0 28.0 0.00 0.00 0.00 49 1001.7
20260505010002 49 306 15.0 29.0 0.00 0.00 0.00 51 1001.6
20260505005627 50 310 21.0 28.0 0.00 0.00 0.00 49 1001.5
20260505004616 50 312 22.0 29.0 0.00 0.00 0.00 50 1001.3
20260505004606 50 325 22.0 29.0 0.00 0.00 0.00 50 1001.3
20260505003611 50 323 20.0 29.0 0.00 0.00 0.00 48 1001.0
20260505003002 50 314 18.0 30.0 0.00 0.00 0.00 48 1001.0
20260505002554 51 316 21.0 29.0 0.00 0.00 0.00 48 1000.9
20260505001602 51 322 20.0 29.0 0.00 0.00 0.00 46 1000.8
20260505000456 52 293 18.0 27.0 0.00 0.00 0.00 47 1000.7
20260505000003 51 281 19.0 28.0 0.00 0.00 0.00 47 1000.6
20260504235507 52 297 20.0 28.0 0.00 0.00 0.00 46 1000.5
20260504234602 51 303 18.0 31.0 0.00 0.00 0.00 48 1000.5
20260504234518 52 304 20.0 32.0 0.00 0.00 0.00 48 1000.4
20260504233446 52 315 21.0 32.0 0.00 0.00 0.00 48 1000.3
20260504233002 52 314 21.0 33.0 0.00 0.00 0.00 47 1000.3
20260504232508 52 317 23.0 31.0 0.00 0.00 0.00 48 1000.2
20260504231602 53 309 22.0 32.0 0.00 0.00 0.00 46 1000.1
20260504230317 53 301 22.0 30.0 0.00 0.00 0.00 47 999.9
20260504230003 53 309 23.0 31.0 0.00 0.00 0.00 46 999.9
20260504225316 53 312 25.0 35.0 0.00 0.00 0.00 46 999.7
20260504224604 53 295 27.0 36.0 0.00 0.00 0.00 45 999.7
20260504224301 54 309 24.0 35.0 0.00 0.00 0.00 46 999.5
20260504223247 55 283 23.0 33.0 0.00 0.00 0.00 46 999.3
20260504223003 54 299 24.0 34.0 0.00 0.00 0.00 45 999.3
20260504222249 55 300 24.0 35.0 0.00 0.00 0.00 46 999.1
20260504221609 55 308 26.0 36.0 0.00 0.00 0.00 44 999.1
20260504220211 56 308 26.0 37.0 0.00 0.00 0.00 47 998.7
20260504220003 55 321 27.0 38.0 0.00 0.00 0.00 45 998.6
20260504214602 56 295 25.0 38.0 0.00 0.00 0.00 45 998.4
20260504213002 57 287 24.0 33.0 0.00 0.00 0.00 44 998.1
20260504212942 57 278 22.0 33.0 0.00 0.00 0.00 44 998.0
20260504211603 57 304 19.0 34.0 0.00 0.00 0.00 46 998.1
20260504210823 58 307 20.0 32.0 0.00 0.00 0.00 44 997.9
20260504210003 57 304 24.0 33.0 0.00 0.00 0.00 45 997.9
20260504205818 57 303 23.0 32.0 0.00 0.00 0.00 44 997.9
20260504204619 57 317 22.0 37.0 0.00 0.00 0.00 44 997.8
20260504203003 58 283 17.0 30.0 0.00 0.00 0.00 46 997.8
20260504202508 59 323 20.0 32.0 0.00 0.00 0.00 43 997.7
20260504201612 57 299 21.0 33.0 0.00 0.00 0.00 44 997.6
20260504201517 58 311 21.0 37.0 0.00 0.00 0.00 44 997.5
20260504200511 58 311 24.0 37.0 0.00 0.00 0.00 43 997.5
20260504200002 58 304 23.0 38.0 0.00 0.00 0.00 45 997.4
20260504195450 58 283 23.0 32.0 0.00 0.00 0.00 45 997.1
20260504194602 58 289 24.0 32.0 0.00 0.00 0.00 44 997.4
20260504194435 58 287 21.0 36.0 0.00 0.00 0.00 45 997.4
20260504193428 59 280 21.0 36.0 0.00 0.00 0.00 44 997.3
20260504193003 59 309 20.0 37.0 0.00 0.00 0.00 45 997.3
20260504191603 58 283 27.0 36.0 0.00 0.00 0.00 47 997.0
20260504191254 58 290 20.0 31.0 0.00 0.00 0.00 48 996.9
20260504190254 58 278 20.0 31.0 0.00 0.00 0.00 48 997.0
20260504190006 57 285 22.0 32.0 0.00 0.00 0.00 46 996.9
20260504185224 57 285 21.0 30.0 0.00 0.00 0.00 46 997.0
20260504184603 57 281 19.0 31.0 0.00 0.00 0.00 48 996.9
20260504184226 58 286 20.0 30.0 0.00 0.00 0.00 46 996.8
20260504183003 58 309 20.0 29.0 0.00 0.00 0.00 44 996.6
20260504182117 60 306 22.0 38.0 0.00 0.00 0.00 44 996.5
20260504181614 59 305 24.0 39.0 0.00 0.00 0.00 39 996.4